www.pogodaiklimat.ru
ПОГОДА в Эшленде
Время
и дата
01:56 25.05
02:12 25.05
02:22 25.05
02:52 25.05
02:54 25.05
02:56 25.05
03:03 25.05
03:08 25.05
03:56 25.05
04:56 25.05
05:56 25.05
06:56 25.05
07:56 25.05
08:56 25.05
09:56 25.05
10:56 25.05
11:24 25.05
11:31 25.05
11:56 25.05
12:03 25.05
12:15 25.05
12:56 25.05
13:56 25.05
14:56 25.05
15:56 25.05
16:56 25.05
17:56 25.05
18:56 25.05
19:56 25.05
20:56 25.05
21:56 25.05
22:56 25.05
23:56 25.05
00:21 26.05
00:37 26.05
00:39 26.05
00:46 26.05
00:56 26.05
00:59 26.05
01:09 26.05
01:14 26.05
01:24 26.05
01:27 26.05
01:35 26.05
01:42 26.05
01:45 26.05
01:47 26.05
01:56 26.05
Ветер
(напр.,м/с)
Видим. Явления Облачность Т
(С)
Тd
(С)
f
(%)
Тe
(С)
Тes
(С)
Комфортность P
(гПа)
Po
(гПа)
Тmin
(С)
Tmax
(С)
R
(мм)
R24
(мм)
S
(см)
штиль 0 16 км ясно +18.0 1010.5 991.1
штиль 0 2 км дымка ясно +18.0 991.4
штиль 0 6 км мгла ясно +18.0 991.1
штиль 0 3 км дымка ясно +17.0 991.1
штиль 0 1 км дымка ясно +17.0 991.1
штиль 0 1 км дымка ясно +17.0 1010.3 991.1
штиль 0 2 км дымка ясно +17.0 990.8
нст 2 6 км мгла ясно +18.0 990.8
штиль 0 16 км 8/2 1500 m
[Ac]
+18.0 1010.3 991.1
штиль 0 16 км ясно +18.0 1010.8 991.4
В 2 16 км 8/0 3600 m
[Ac]
+18.0 1011.4 992.1
штиль 0 16 км 2/0 3300 m
[Ac]
+19.0 1011.2 991.8 +17.2 +19.4
В 2 16 км 10/0 3300 m
[Ac]
+21.0 1011.4 991.8
штиль 0 16 км 5/0 3300 m
[Ac]
+23.3 +20.6 85 +31 +36 очень
душно
1011.2 991.8
штиль 0 16 км ясно +25.0 +19.4 71 +30 +44 душно 1011.4 992.1
нст 2 16 км 2/0 2100 m
[Ac]
+26.1 +20.0 69 +32 +44 очень
душно
1011.6 992.1
ЮЗ 3 16 км 8/8 870 м +26.0 +19.0 65 +31 +34 очень
душно
992.1
нст 2 16 км 8/8 930 м +26.0 +20.0 70 +32 +36 очень
душно
992.1
нст 2 16 км 10/10 930 м +25.6 +20.6 74 +32 +32 очень
душно
1011.6 992.1
ЮЗ 2 16 км 10/10 870 м +26.0 +21.0 74 +33 +33 очень
душно
992.1
нст 3 16 км 8/8 870 м +26.0 +19.0 65 +31 +34 очень
душно
992.1
нст 3 16 км 5/5 1080 м +26.7 +18.9 62 +32 +40 очень
душно
1011.5 992.1 +19.4 +26.7
нст 2 16 км 5/5 1110 м +26.7 +20.0 67 +33 +43 очень
душно
1010.6 991.1
нст 2 16 км 8/8 1170 м +26.1 +20.0 69 +32 +36 очень
душно
1010.3 990.8
З 3 16 км 8/8 1170 м +27.2 +19.4 62 +33 +35 очень
душно
1010.2 990.8
ЮЗ 2 16 км 5/5 1230 м +27.2 +19.4 62 +33 +38 очень
душно
1010.0 990.8
ЮЗ 3 16 км 8/8 1260 м +26.1 +19.4 67 +32 +33 очень
душно
1010.2 990.8
штиль 0 16 км 5/5 1200 м +25.6 +20.0 71 +31 +33 очень
душно
1010.4 991.1 +25.6 +28.3
штиль 0 16 км ясно +23.3 +21.7 91 +32 +32 очень
душно
1010.8 991.4
штиль 0 16 км ясно +21.0 1011.4 992.1
штиль 0 16 км ясно +20.0 1012.0 992.8
штиль 0 14 км ясно +19.0 1012.0 992.4
штиль 0 10 км мгла ясно +19.0 1012.2 992.8
штиль 0 3 км дымка ясно +19.0 992.8
штиль 0 2 км дымка ясно +19.0 992.8
штиль 0 1 км дымка ясно +19.0 992.8
штиль 0 2 км дымка ясно +19.0 992.8
штиль 0 6 км мгла ясно +18.0 1012.3 992.8 +18.3 +25.6
штиль 0 1 км дымка ясно +18.0 992.8
штиль 0 2 км дымка ясно +18.0 992.8
штиль 0 1 км дымка ясно +18.0 992.8
штиль 0 2 км слабый дождь ясно +18.0 992.8
штиль 0 5 км дымка ясно +18.0 992.8
штиль 0 2 км дымка ясно +18.0 993.1
штиль 0 1 км слабый дождь ясно +18.0 992.8
штиль 0 3 км слабый дождь ясно +19.0 992.8
штиль 0 5 км слабый дождь ясно +19.0 992.4
штиль 0 8 км мгла ясно +19.0 1012.0 992.4
Местоположение метеостанции Ashland Regional Airport: широта 38.5545 долгота -82.7380 высота над уровнем моря 165 м.
В архиве по умолчанию представлена погода в Эшленде за последние 1-2 суток. Обновление информации о фактической погоде в базе происходит ежечасно! Архивные данные за месяц целиком и за предыдущие месяцы Вы можете получить, выбрав интересующий диапазон дат из раскрывающегося списка и нажав кнопку "Ввод!".
Внимание! Архив погоды МЕТАР в базе сайта по станциям, не включенным в климатический монитор, хранится не более 60 дней. Нет смысла пытаться выбрать более раннюю дату.
*Определитесь, кто Вы:
Внимание! Время в таблицах - местное (без учета летнего времени). Для получения всемирного времени необходимо вычесть поправку, которая равна -5 ч.
Смотрите также архив погоды в соседних городах и на ближайших метеорологических станциях:
Партнеры нашего сайта:      
Пояснения к столбцам:
  • Ветер - указаны скорость ветра в м/с - средняя за 10 мин, порывы в срок и между сроками (в фигурных скобках) и направление, откуда дует ветер: С - северный,
  • СВ - северо-восточный, В - восточный, ЮВ - юго-восточный, Ю - южный, ЮЗ - юго-западный, З - западный, СЗ - северо-западный.
  • Видимость - горизонтальная дальность видимости в метрах или километрах. При видимости от 1 до 10 км при отсутствии осадков обычно наблюдается дымка, при ухудшении видимости до 1 км и менее - туман. В сухую погоду видимость может ухудшаться дымом, пылью или мглою.
  • Явления - указаны атмосферные явления, наблюдавшиеся в срок или в последний час перед сроком; фигурными скобками обозначены явления, наблюдавшиеся между сроками (за 1-3 часа до срока); квадратными скобками обозначены град или гололедные отложения с указанием их диаметра в мм.
  • Облачность - указаны через наклонную черту общая и нижняя облачность в баллах и высота нижней границы облаков в метрах; квадратными скобками обозначены формы облаков: Ci - перистые, Cs - перисто-слоистые, Cc - перисто-кучевые, Ac - высококучевые, As - высокослоистые, Sc - слоисто-кучевые, Ns - слоисто-дождевые, Cu - кучевые, Cb - кучево-дождевые. Подробнее классификацию облаков см. в Атласе облаков (PDF).
  • T - Температура воздуха - температура, измеренная на высоте 2 м над землей.
  • Td - Температура точки росы - температура, при понижении до которой содержащийся в воздухе водяной пар достигнет насыщения.
  • f - Относительная влажность воздуха - влажноcть воздуха, измеренная на высоте 2 м над землей.
  • Te - Эффективная температура - температура, которую ощущает одетый по сезону человек в тени. Характеристика душности погоды. При расчете учитывается влияние влажности воздуха и скорости ветра на теплоощущения человека.
  • Tes - Эффективная температура на солнце - температура, которую ощущает человек, с поправкой на солнечный нагрев. Характеристика знойности погоды. Зависит от высоты солнца над горизонтом, облачности и скорости ветра. Ночью, в пасмурную погоду, а также при ветре 12 м/с и более поправка равна нулю.
  • P - Атмосферное давление - приведенное к уровню моря атмосферное давление.
  • Po - Атмосферное давление - измеренное на уровне метеостанции атмосферное давление.
  • Tmin - Минимальная температура - минимум температуры воздуха на высоте 2 м над землей.
  • Tmax - Максимальная температура - максимум температуры воздуха на высоте 2 м над землей.
  • R - Количество осадков - Количество выпавших осадков за период времени, мм. При наведении курсора мыши на число - период времени, за который выпало указанное количество осадков.
  • R24 - Количество осадков - Количество выпавших осадков за 24 часа, мм.
  • S - Снежный покров - Высота снежного покрова, см. При наведении курсора мыши на число - состояние снежного покрова и степень покрытия местности в баллах.